Language: 


Des rapports , des résumés tant et plus, au choix de chacun....


Données Historiques de Météogheer
Journalier Rapport pour Janvier 2, 2018 Unitée:  Impériale    Métrique   Les deux
Suivant Jour »
Journalier Hebdomadaire Mensuel Annuel Sur mesure
  Max: Min: Moyenne:
Température: 52 °F 36 °F 44.4 °F
Point de rosée: 51.8 °F 33.8 °F 42.6 °F
Humidité: 98% 75% 92%
Vent: 17.7mph 0mph 6.4mph
Rafales: 23.5mph - -
Vent- - SW
Pression: 29.9 in 29.4 in -
Pluie: 0.05 in    
Historical Graphs
 
 
Données tabulaires pour Janvier 2, 2018
Heure Température Point de rosée Pression Vent Vent Rafales Humidité Pluie Taux (Horaire) Conditions
00:04 46.2 °F 41 °F 29.7 in West 15.7 mph 19.2 mph 81% 0 in
00:06 46.2 °F 41 °F 29.7 in WSW 9.8 mph 19.5 mph 81% 0 in
00:08 46.2 °F 41 °F 29.7 in West 7.4 mph 19.5 mph 81% 0 in
00:12 46.2 °F 41 °F 29.7 in West 12.8 mph 19.5 mph 81% 0 in
00:13 46.2 °F 41 °F 29.7 in WSW 13.9 mph 19.5 mph 81% 0 in
00:14 46.2 °F 41 °F 29.7 in West 14.1 mph 19.5 mph 81% 0 in
00:19 46.2 °F 41 °F 29.7 in West 10.1 mph 19.5 mph 80% 0 in
00:20 46.2 °F 41 °F 29.7 in West 15.4 mph 19.5 mph 80% 0 in
00:24 46.2 °F 41 °F 29.7 in West 14.1 mph 19.5 mph 80% 0 in
00:26 46.2 °F 41 °F 29.6 in WSW 13.4 mph 19.5 mph 79% 0 in
00:31 46.2 °F 41 °F 29.6 in WSW 15.4 mph 19.2 mph 79% 0 in
00:36 46.2 °F 39.2 °F 29.6 in WSW 10.5 mph 19.2 mph 78% 0 in
00:41 46 °F 39.2 °F 29.7 in WSW 15.4 mph 17.2 mph 78% 0 in
00:44 46 °F 39.2 °F 29.7 in West 11 mph 15.7 mph 78% 0 in
00:49 46 °F 39.2 °F 29.7 in West 17.7 mph 19.7 mph 77% 0 in
00:54 45.9 °F 39.2 °F 29.7 in WNW 10.1 mph 19.7 mph 78% 0 in
00:59 45.9 °F 39.2 °F 29.7 in West 7.6 mph 17.7 mph 78% 0 in
01:01 45.9 °F 39.2 °F 29.7 in WSW 14.5 mph 16.6 mph 78% 0 in
01:06 45.9 °F 39.2 °F 29.7 in West 6.5 mph 16.6 mph 79% 0 in
01:11 45.7 °F 41 °F 29.7 in WSW 7.6 mph 14.8 mph 80% 0 in
01:12 45.7 °F 41 °F 29.7 in West 15.4 mph 15.4 mph 80% 0 in
01:17 45.5 °F 41 °F 29.7 in West 10.1 mph 15.4 mph 81% 0 in
01:20 45.5 °F 41 °F 29.7 in WSW 17.4 mph 17.4 mph 82% 0 in
01:22 45.5 °F 41 °F 29.7 in WSW 12.8 mph 17.4 mph 82% 0 in
01:27 45.7 °F 41 °F 29.7 in WSW 12.1 mph 22.6 mph 81% 0 in
01:31 45.7 °F 41 °F 29.7 in West 13 mph 22.6 mph 81% 0 in
01:32 45.7 °F 41 °F 29.7 in West 15.4 mph 22.6 mph 81% 0 in
01:37 46 °F 39.2 °F 29.7 in West 10.7 mph 16.1 mph 79% 0 in
01:39 46 °F 39.2 °F 29.7 in West 10.5 mph 16.3 mph 78% 0 in
01:44 46 °F 39.2 °F 29.7 in West 8.1 mph 18.6 mph 78% 0 in
01:49 46.2 °F 39.2 °F 29.7 in NW 8.1 mph 18.6 mph 76% 0 in
01:54 46.2 °F 39.2 °F 29.7 in West 10.7 mph 16.3 mph 76% 0 in
01:55 46.2 °F 39.2 °F 29.7 in West 11 mph 16.3 mph 76% 0 in
01:56 46.2 °F 39.2 °F 29.7 in West 6 mph 15.4 mph 76% 0 in
02:01 46.2 °F 39.2 °F 29.7 in West 5.6 mph 15.2 mph 76% 0 in
02:03 46.2 °F 39.2 °F 29.7 in WNW 15.2 mph 15.2 mph 76% 0 in
02:05 46.2 °F 39.2 °F 29.7 in West 9.6 mph 15.2 mph 76% 0 in
02:10 46.2 °F 39.2 °F 29.7 in West 4.9 mph 15.2 mph 76% 0 in
02:13 46.2 °F 39.2 °F 29.7 in WSW 5.6 mph 15.2 mph 75% 0 in
02:16 46.2 °F 39.2 °F 29.7 in West 11.4 mph 15.2 mph 75% 0 in
02:21 46.2 °F 39.2 °F 29.7 in WSW 8.7 mph 15.2 mph 75% 0 in
02:23 46.2 °F 39.2 °F 29.7 in West 9.6 mph 14.3 mph 75% 0 in
02:24 46.2 °F 39.2 °F 29.7 in WNW 11 mph 14.3 mph 75% 0 in
02:28 46.2 °F 39.2 °F 29.7 in West 5.8 mph 13.9 mph 75% 0 in
02:33 46.2 °F 39.2 °F 29.7 in West 7.4 mph 14.1 mph 75% 0 in
02:36 46.2 °F 39.2 °F 29.7 in West 10.3 mph 14.1 mph 75% 0 in
02:37 46 °F 39.2 °F 29.7 in WSW 3.8 mph 14.1 mph 75% 0 in
02:41 46 °F 39.2 °F 29.8 in WSW 8.5 mph 14.8 mph 76% 0 in
02:46 45.9 °F 39.2 °F 29.8 in West 5.8 mph 14.8 mph 76% 0 in
02:51 45.9 °F 39.2 °F 29.8 in West 8.7 mph 16.3 mph 76% 0 in
02:56 45.9 °F 39.2 °F 29.8 in West 6.5 mph 16.3 mph 77% 0 in
02:58 45.9 °F 39.2 °F 29.8 in West 7.4 mph 16.3 mph 77% 0 in
03:03 45.9 °F 39.2 °F 29.8 in West 8.9 mph 12.3 mph 77% 0 in
03:04 45.9 °F 39.2 °F 29.8 in South 4.9 mph 12.3 mph 77% 0 in
03:09 45.9 °F 39.2 °F 29.8 in West 7.6 mph 12.3 mph 77% 0 in
03:10 45.9 °F 39.2 °F 29.8 in SSW 4 mph 12.3 mph 77% 0 in
03:20 45.7 °F 39.2 °F 29.8 in West 7.6 mph 12.1 mph 78% 0 in
03:23 45.7 °F 39.2 °F 29.8 in WSW 6.5 mph 12.3 mph 78% 0 in
03:28 45.5 °F 39.2 °F 29.8 in West 5.8 mph 12.5 mph 78% 0 in
03:31 45.5 °F 39.2 °F 29.8 in WSW 2.7 mph 12.5 mph 78% 0 in
03:37 45.1 °F 39.2 °F 29.8 in West 5.8 mph 12.1 mph 78% 0 in
03:43 45 °F 39.2 °F 29.8 in West 7.8 mph 14.8 mph 79% 0 in
03:44 45 °F 39.2 °F 29.8 in WNW 6.5 mph 14.8 mph 79% 0 in
03:50 44.8 °F 39.2 °F 29.8 in West 6.5 mph 12.3 mph 79% 0 in
03:55 44.4 °F 39.2 °F 29.8 in West 6 mph 12.3 mph 80% 0 in
04:00 44.2 °F 39.2 °F 29.8 in WSW 5.6 mph 10.7 mph 80% 0 in
04:02 44.1 °F 39.2 °F 29.8 in WSW 5.6 mph 9.2 mph 80% 0 in
04:07 44.1 °F 39.2 °F 29.8 in West 3.8 mph 10.5 mph 80% 0 in
04:15 43.5 °F 37.4 °F 29.8 in West 7.6 mph 9.8 mph 81% 0 in
04:20 43.2 °F 39.2 °F 29.8 in WSW 6.7 mph 8.7 mph 82% 0 in
04:22 43.2 °F 39.2 °F 29.8 in WSW 6.5 mph 8.7 mph 82% 0 in
04:34 42.8 °F 39.2 °F 29.8 in WSW 7.4 mph 8.7 mph 84% 0 in
04:49 42.3 °F 39.2 °F 29.8 in WSW 4 mph 8.1 mph 85% 0 in
04:51 42.3 °F 39.2 °F 29.8 in WSW 4.3 mph 8.1 mph 85% 0 in
04:55 42.1 °F 39.2 °F 29.8 in West 7.8 mph 8.1 mph 85% 0 in
05:00 41.9 °F 39.2 °F 29.8 in WSW 0.9 mph 7.8 mph 86% 0 in
05:01 41.9 °F 39.2 °F 29.8 in WSW 4.9 mph 7.8 mph 86% 0 in
05:07 41.5 °F 37.4 °F 29.8 in West 6.5 mph 7.6 mph 86% 0 in
05:12 41.5 °F 37.4 °F 29.8 in West 6.5 mph 6.5 mph 86% 0 in
05:13 41.5 °F 37.4 °F 29.8 in West 3.6 mph 6.5 mph 86% 0 in
05:18 41.5 °F 39.2 °F 29.8 in West 5.8 mph 7.6 mph 87% 0 in
05:19 41.5 °F 39.2 °F 29.8 in WSW 2.7 mph 7.6 mph 87% 0 in
05:21 41.5 °F 39.2 °F 29.8 in West 6 mph 10.3 mph 87% 0 in
05:26 41.7 °F 39.2 °F 29.9 in West 3.1 mph 10.3 mph 88% 0 in
05:28 41.7 °F 39.2 °F 29.9 in West 6.5 mph 10.3 mph 88% 0 in
05:33 41.5 °F 39.2 °F 29.9 in West 6.9 mph 8.7 mph 88% 0 in
05:38 41.4 °F 37.4 °F 29.9 in SSW 6.5 mph 8.7 mph 88% 0 in
05:42 41.2 °F 37.4 °F 29.9 in WSW 7.6 mph 8.7 mph 88% 0 in
05:44 41.2 °F 37.4 °F 29.9 in WSW 6.3 mph 8.7 mph 88% 0 in
05:47 41.2 °F 37.4 °F 29.9 in West 5.6 mph 8.7 mph 88% 0 in
05:51 41.2 °F 37.4 °F 29.9 in WSW 5.6 mph 8.7 mph 88% 0 in
05:56 41 °F 37.4 °F 29.9 in Calm   8.9 mph 88% 0 in
06:01 41 °F 37.4 °F 29.9 in West 4.7 mph 8.9 mph 88% 0 in
06:02 40.8 °F 37.4 °F 29.9 in West 5.6 mph 8.9 mph 89% 0 in
06:04 40.8 °F 37.4 °F 29.9 in West 5.4 mph 8.9 mph 89% 0 in
06:08 40.6 °F 37.4 °F 29.9 in West 7.6 mph 8.5 mph 89% 0 in
06:12 40.6 °F 37.4 °F 29.9 in West 5.8 mph 8.7 mph 90% 0 in
06:13 40.6 °F 37.4 °F 29.9 in WSW 4.7 mph 8.7 mph 90% 0 in
06:18 40.5 °F 37.4 °F 29.9 in West 3.8 mph 7.8 mph 90% 0 in
06:23 40.3 °F 37.4 °F 29.9 in WSW 1.6 mph 7.6 mph 90% 0 in
06:28 40.1 °F 37.4 °F 29.8 in WSW 3.1 mph 6.5 mph 90% 0 in
06:33 39.9 °F 37.4 °F 29.8 in West 1.3 mph 6.5 mph 90% 0 in
06:34 39.9 °F 37.4 °F 29.8 in West 2.9 mph 6 mph 90% 0 in
06:39 39.7 °F 37.4 °F 29.8 in Calm   6 mph 90% 0 in
06:40 39.7 °F 37.4 °F 29.8 in WSW 4.9 mph 6 mph 90% 0 in
06:41 39.7 °F 37.4 °F 29.8 in West 3.1 mph 6.3 mph 90% 0 in
06:46 39.7 °F 37.4 °F 29.8 in West 6.3 mph 7.6 mph 91% 0 in
06:48 39.7 °F 37.4 °F 29.8 in West 6.3 mph 7.6 mph 91% 0 in
06:53 39.7 °F 37.4 °F 29.8 in West 6.5 mph 7.6 mph 92% 0 in
06:58 39.6 °F 37.4 °F 29.8 in West 5.8 mph 7.6 mph 92% 0 in
06:59 39.6 °F 37.4 °F 29.8 in West 5.8 mph 7.6 mph 92% 0 in
07:04 39.4 °F 37.4 °F 29.8 in WSW 2.7 mph 6.5 mph 93% 0 in
07:05 39.4 °F 37.4 °F 29.8 in Calm   6 mph 93% 0 in
07:10 39.2 °F 37.4 °F 29.9 in West 3.6 mph 6 mph 93% 0 in
07:11 39.2 °F 37.4 °F 29.9 in West 4.3 mph 6 mph 93% 0 in
07:16 39.2 °F 37.4 °F 29.9 in West 3.1 mph 4.9 mph 93% 0 in
07:18 39.2 °F 37.4 °F 29.9 in Calm   4.9 mph 93% 0 in
07:26 38.8 °F 37.4 °F 29.8 in West 3.4 mph 5.4 mph 93% 0 in
07:35 38.5 °F 37.4 °F 29.8 in NW 2.7 mph 3.8 mph 93% 0 in
07:40 38.3 °F 37.4 °F 29.8 in Calm   3.1 mph 93% 0 in
07:41 38.1 °F 37.4 °F 29.9 in Calm   3.1 mph 93% 0 in
07:46 38.1 °F 37.4 °F 29.9 in Calm     94% 0 in
07:47 38.1 °F 37.4 °F 29.9 in Calm     94% 0 in
07:53 38.1 °F 37.4 °F 29.9 in WSW 3.6 mph 3.6 mph 94% 0 in
07:56 38.1 °F 37.4 °F 29.9 in West 3.4 mph 4.3 mph 94% 0 in
08:01 38.1 °F 37.4 °F 29.9 in Calm   4.7 mph 95% 0 in
08:03 37.9 °F 37.4 °F 29.9 in West 3.1 mph 4.7 mph 95% 0 in
08:05 37.9 °F 37.4 °F 29.9 in Calm   4.7 mph 95% 0 in
08:09 37.9 °F 37.4 °F 29.9 in WSW 3.4 mph 3.6 mph 95% 0 in
08:14 37.9 °F 37.4 °F 29.9 in WSW 2.7 mph 4.3 mph 95% 0 in
08:15 37.9 °F 37.4 °F 29.9 in Calm   4.3 mph 95% 0 in
08:25 37.9 °F 37.4 °F 29.9 in West 3.8 mph 3.8 mph 95% 0 in
08:27 37.9 °F 37.4 °F 29.9 in West 4.3 mph 4.3 mph 95% 0 in
08:32 38.1 °F 37.4 °F 29.9 in Calm   4.3 mph 96% 0 in
08:33 38.1 °F 37.4 °F 29.9 in Calm   4.3 mph 96% 0 in
08:38 37.9 °F 37.4 °F 29.9 in Calm   4.3 mph 96% 0 in
08:43 37.6 °F 37.4 °F 29.9 in Calm   4.3 mph 95% 0 in
08:44 37.6 °F 37.4 °F 29.9 in Calm   4.3 mph 95% 0 in
08:55 36.7 °F 35.6 °F 29.9 in Calm   0.9 mph 94% 0 in
08:58 36.5 °F 35.6 °F 29.9 in Calm   0.9 mph 94% 0 in
09:00 36.3 °F 35.6 °F 29.9 in Calm   0.9 mph 94% 0 in
09:04 36.1 °F 35.6 °F 29.9 in Calm     94% 0 in
09:09 36 °F 33.8 °F 29.9 in Calm     94% 0 in
09:12 36 °F 35.6 °F 29.9 in Calm     95% 0 in
09:17 36.1 °F 35.6 °F 29.9 in Calm     95% 0 in
09:19 36.1 °F 35.6 °F 29.9 in Calm     95% 0 in
09:24 36.5 °F 37.4 °F 29.9 in Calm   2.7 mph 96% 0 in
09:29 36.9 °F 37.4 °F 29.9 in Calm   2.7 mph 97% 0 in
09:32 37 °F 37.4 °F 29.9 in Calm     97% 0 in
09:37 36.9 °F 37.4 °F 29.9 in Calm     97% 0 in
09:38 37 °F 37.4 °F 29.9 in Calm     97% 0 in
09:43 37.2 °F 37.4 °F 29.9 in Calm     97% 0 in
09:49 37.4 °F 37.4 °F 29.9 in Calm     97% 0 in
09:54 37.9 °F 37.4 °F 29.9 in WSW 2.5 mph 2.5 mph 98% 0 in
09:59 38.3 °F 39.2 °F 29.9 in Calm   2.7 mph 98% 0 in
10:01 38.5 °F 39.2 °F 29.9 in WSW 1.1 mph 2.7 mph 98% 0 in
10:06 38.8 °F 39.2 °F 29.9 in Calm   2.9 mph 98% 0 in
10:11 39.2 °F 39.2 °F 29.9 in WSW 2.2 mph 5.6 mph 98% 0 in
10:13 39.4 °F 39.2 °F 29.9 in SSW 1.6 mph 5.6 mph 98% 0 in
10:18 39.9 °F 39.2 °F 29.9 in Calm   5.6 mph 98% 0 in
10:21 40.1 °F 41 °F 29.9 in Calm   3.8 mph 98% 0 in
10:25 40.3 °F 41 °F 29.9 in Calm     98% 0 in
10:30 40.6 °F 41 °F 29.9 in Calm     98% 0 in
10:32 40.6 °F 41 °F 29.9 in Calm     98% 0 in
10:37 40.8 °F 41 °F 29.9 in Calm   0.9 mph 98% 0 in
10:38 40.8 °F 41 °F 29.9 in Calm   0.9 mph 98% 0 in
10:41 41 °F 41 °F 29.9 in Calm   0.9 mph 97% 0 in
10:44 41 °F 41 °F 29.9 in Calm   1.3 mph 97% 0 in
10:47 41 °F 41 °F 29.9 in South 1.3 mph 3.6 mph 97% 0 in
10:52 41.2 °F 41 °F 29.9 in Calm   3.6 mph 97% 0 in
10:56 41.4 °F 41 °F 29.9 in Calm   3.6 mph 97% 0 in
10:58 41.4 °F 41 °F 29.9 in Calm     97% 0 in
11:03 41.5 °F 41 °F 29.9 in SW 3.4 mph 4.9 mph 97% 0 in
11:04 41.5 °F 41 °F 29.9 in SW 4 mph 4.9 mph 97% 0 in
11:08 41.7 °F 41 °F 29.9 in SSW 4 mph 5.6 mph 97% 0 in
11:09 41.7 °F 41 °F 29.9 in SW 4 mph 5.6 mph 97% 0 in
11:14 42.1 °F 42.8 °F 29.9 in SSW 2.2 mph 5.6 mph 96% 0 in
11:19 42.3 °F 42.8 °F 29.9 in WSW 4 mph 6 mph 96% 0 in
11:22 42.3 °F 42.8 °F 29.9 in Calm   6 mph 96% 0 in
11:31 42.4 °F 42.8 °F 29.9 in SSW 3.4 mph 5.6 mph 95% 0 in
11:36 42.6 °F 41 °F 29.9 in WSW 7.4 mph 7.4 mph 94% 0 in
11:38 42.8 °F 41 °F 29.9 in SSW 5.6 mph 7.4 mph 93% 0 in
11:39 42.8 °F 41 °F 29.9 in SSW 5.8 mph 7.4 mph 93% 0 in
11:44 42.8 °F 41 °F 29.9 in SW 6 mph 7.4 mph 92% 0 in
11:49 43 °F 41 °F 29.9 in SW 3.8 mph 8.5 mph 92% 0 in
11:53 43 °F 41 °F 29.9 in SSW 5.8 mph 8.5 mph 91% 0 in
11:58 43.2 °F 41 °F 29.9 in SSW 7.4 mph 7.8 mph 91% 0 in
12:00 43.3 °F 41 °F 29.9 in SSW 5.8 mph 7.8 mph 91% 0 in
12:05 43.5 °F 41 °F 29.9 in Calm   7.6 mph 91% 0 in
12:06 43.5 °F 41 °F 29.9 in SSW 6.3 mph 7.6 mph 91% 0 in
12:11 43.5 °F 41 °F 29.9 in WSW 4 mph 6.3 mph 91% 0 in
12:12 43.5 °F 41 °F 29.9 in SSW 5.6 mph 6.3 mph 91% 0 in
12:17 43.7 °F 42.8 °F 29.9 in Calm   6.7 mph 91% 0 in
12:18 43.7 °F 42.8 °F 29.9 in Calm   6.7 mph 91% 0 in
12:23 43.7 °F 41 °F 29.9 in SSW 5.4 mph 7.4 mph 90% 0 in
12:26 43.9 °F 41 °F 29.9 in SSW 3.6 mph 7.4 mph 90% 0 in
12:31 43.9 °F 41 °F 29.9 in SSW 1.6 mph 6.5 mph 90% 0 in
12:33 43.9 °F 41 °F 29.9 in South 3.6 mph 6.5 mph 90% 0 in
12:35 43.9 °F 41 °F 29.9 in SW 4.9 mph 8.5 mph 90% 0 in
12:39 44.1 °F 41 °F 29.9 in South 5.6 mph 8.5 mph 90% 0 in
12:44 43.9 °F 41 °F 29.9 in South 3.6 mph 8.5 mph 90% 0 in
12:45 43.9 °F 41 °F 29.9 in SSW 4.3 mph 7.4 mph 90% 0 in
12:50 43.9 °F 41 °F 29.9 in South 6.3 mph 7.2 mph 90% 0 in
12:55 43.9 °F 42.8 °F 29.9 in SSW 4.3 mph 8.1 mph 91% 0 in
12:58 43.9 °F 42.8 °F 29.9 in South 6 mph 8.1 mph 91% 0 in
13:00 44.1 °F 42.8 °F 29.9 in SSW 2.9 mph 8.1 mph 91% 0 in
13:05 44.1 °F 42.8 °F 29.9 in South 7.4 mph 8.1 mph 91% 0 in
13:07 44.1 °F 42.8 °F 29.9 in SSW 3.8 mph 8.5 mph 92% 0 in
13:12 44.1 °F 42.8 °F 29.9 in South 5.4 mph 8.5 mph 92% 0 in
13:15 44.1 °F 42.8 °F 29.9 in SSW 5.8 mph 8.7 mph 92% 0 in
13:19 44.2 °F 42.8 °F 29.9 in SSW 4.7 mph 9.2 mph 93% 0 in
13:24 44.2 °F 42.8 °F 29.9 in SSW 6.3 mph 10.3 mph 93% 0 in
13:25 44.2 °F 42.8 °F 29.9 in South 1.1 mph 10.3 mph 93% 0 in
13:30 44.2 °F 42.8 °F 29.9 in SSW 5.8 mph 10.3 mph 93% 0 in
13:33 44.2 °F 42.8 °F 29.9 in South 3.1 mph 7.8 mph 93% 0 in
13:38 44.4 °F 42.8 °F 29.9 in South 5.4 mph 7.6 mph 94% 0 in
13:41 44.6 °F 42.8 °F 29.9 in Calm   8.1 mph 93% 0 in
13:46 44.6 °F 42.8 °F 29.9 in SSW 6 mph 8.1 mph 94% 0 in
13:47 44.6 °F 42.8 °F 29.9 in South 6.3 mph 8.1 mph 94% 0 in
13:52 44.6 °F 42.8 °F 29.9 in WSW 4.9 mph 8.5 mph 94% 0 in
13:54 44.6 °F 42.8 °F 29.9 in SSW 7.8 mph 8.5 mph 94% 0 in
13:59 44.8 °F 42.8 °F 29.9 in SSW 4.9 mph 8.7 mph 94% 0 in
14:03 44.8 °F 42.8 °F 29.9 in SSW 6 mph 8.7 mph 94% 0 in
14:05 44.8 °F 42.8 °F 29.9 in SSW 10.1 mph 12.1 mph 94% 0 in
14:10 44.8 °F 42.8 °F 29.9 in SW 4.9 mph 12.1 mph 94% 0 in
14:13 44.8 °F 42.8 °F 29.8 in WSW 7.4 mph 12.1 mph 94% 0 in
14:20 44.8 °F 42.8 °F 29.8 in South 5.6 mph 10.5 mph 95% 0 in
14:28 44.6 °F 42.8 °F 29.8 in SW 6 mph 8.7 mph 95% 0 in
14:30 44.6 °F 42.8 °F 29.8 in SSW 3.4 mph 7.6 mph 95% 0 in
14:35 44.6 °F 44.6 °F 29.8 in SSW 6.5 mph 7.8 mph 96% 0 in
14:40 44.6 °F 44.6 °F 29.8 in SSW 3.8 mph 7.8 mph 96% 0 in
14:45 44.6 °F 44.6 °F 29.8 in SSW 3.1 mph 6.3 mph 96% 0 in
14:49 44.6 °F 44.6 °F 29.8 in South 4.9 mph 7.2 mph 96% 0 in
14:53 44.4 °F 44.6 °F 29.8 in SSW 5.8 mph 7.8 mph 97% 0 in
14:58 44.4 °F 44.6 °F 29.8 in South 2.7 mph 7.8 mph 97% 0 in
14:59 44.4 °F 44.6 °F 29.8 in South 4.7 mph 7.8 mph 97% 0 in
15:03 44.4 °F 44.6 °F 29.8 in SSW 5.6 mph 8.1 mph 97% 0 in
15:05 44.4 °F 44.6 °F 29.8 in South 3.4 mph 8.1 mph 97% 0 in
15:10 44.4 °F 44.6 °F 29.8 in South 11 mph 11 mph 98% 0 in
15:12 44.4 °F 44.6 °F 29.8 in SSE 8.7 mph 11 mph 98% 0.01 in
15:17 44.4 °F 44.6 °F 29.8 in South 5.4 mph 11 mph 98% 0.01 in
15:20 44.4 °F 44.6 °F 29.8 in SSW 8.7 mph 11 mph 98% 0.01 in
15:23 44.4 °F 44.6 °F 29.8 in SSW 9.8 mph 10.5 mph 98% 0.01 in
15:25 44.4 °F 44.6 °F 29.8 in SSW 6.3 mph 10.5 mph 98% 0.01 in
15:31 44.4 °F 44.6 °F 29.8 in SSE 5.6 mph 12.5 mph 98% 0.01 in
15:33 44.4 °F 44.6 °F 29.8 in South 8.1 mph 12.5 mph 98% 0.01 in
15:34 44.4 °F 44.6 °F 29.8 in SSW 7.2 mph 12.5 mph 98% 0.01 in
15:39 44.2 °F 44.6 °F 29.8 in South 6.9 mph 12.5 mph 98% 0.01 in
15:40 44.2 °F 44.6 °F 29.8 in South 8.7 mph 11 mph 98% 0.01 in
15:43 44.2 °F 44.6 °F 29.8 in South 5.6 mph 11 mph 98% 0.01 in
15:48 44.2 °F 44.6 °F 29.8 in SSE 6 mph 11 mph 98% 0.01 in
15:53 44.2 °F 44.6 °F 29.8 in South 8.7 mph 10.3 mph 98% 0.01 in
15:54 44.2 °F 44.6 °F 29.8 in SSE 7.4 mph 10.3 mph 98% 0.01 in
15:59 44.2 °F 44.6 °F 29.7 in SSE 8.5 mph 10.3 mph 98% 0.02 in
16:04 44.2 °F 44.6 °F 29.7 in South 6.3 mph 11.4 mph 98% 0.02 in
16:10 44.2 °F 44.6 °F 29.7 in SSW 9.8 mph 12.5 mph 98% 0.02 in
16:12 44.2 °F 44.6 °F 29.7 in South 5.4 mph 12.5 mph 98% 0.01 in
16:17 44.2 °F 44.6 °F 29.7 in South 11.4 mph 14.5 mph 98% 0.01 in
16:22 44.2 °F 44.6 °F 29.7 in South 6 mph 15.2 mph 98% 0.01 in
16:23 44.2 °F 44.6 °F 29.7 in South 8.5 mph 15.2 mph 98% 0.01 in
16:28 44.2 °F 44.6 °F 29.7 in South 7.8 mph 13.4 mph 98% 0.01 in
16:30 44.2 °F 44.6 °F 29.7 in South 7.8 mph 13.4 mph 98% 0.01 in
16:35 44.2 °F 44.6 °F 29.7 in SSW 10.7 mph 11.2 mph 98% 0.02 in
16:36 44.2 °F 44.6 °F 29.7 in South 6 mph 11.2 mph 98% 0.02 in
16:41 44.4 °F 44.6 °F 29.7 in South 10.5 mph 12.5 mph 98% 0.02 in
16:45 44.4 °F 44.6 °F 29.7 in SSW 7.8 mph 13.2 mph 98% 0.02 in
16:50 44.6 °F 44.6 °F 29.7 in South 12.1 mph 13.2 mph 98% 0.02 in
16:55 44.6 °F 44.6 °F 29.7 in South 8.7 mph 15.4 mph 98% 0.02 in
16:56 44.6 °F 44.6 °F 29.7 in South 8.7 mph 15.4 mph 98% 0.01 in
17:01 44.6 °F 44.6 °F 29.7 in SSE 12.1 mph 15.4 mph 98% 0.01 in
17:06 44.8 °F 44.6 °F 29.7 in South 6.3 mph 13 mph 98% 0.01 in
17:09 44.8 °F 44.6 °F 29.7 in SSW 11 mph 13.6 mph 98% 0.01 in
17:14 44.8 °F 44.6 °F 29.7 in SSW 11.9 mph 14.1 mph 98% 0.01 in
17:17 45 °F 44.6 °F 29.7 in South 11 mph 14.1 mph 98% 0.01 in
17:21 45 °F 44.6 °F 29.7 in SSW 16.3 mph 16.3 mph 98% 0.01 in
17:23 45 °F 44.6 °F 29.7 in SSW 15.7 mph 16.3 mph 98% 0.01 in
17:28 45 °F 44.6 °F 29.7 in South 11.2 mph 16.3 mph 98% 0.01 in
17:34 45.1 °F 44.6 °F 29.7 in SSW 12.3 mph 23.5 mph 98% 0 in
17:37 45.1 °F 44.6 °F 29.7 in South 10.3 mph 23.5 mph 98% 0 in
17:40 45.1 °F 44.6 °F 29.7 in South 10.3 mph 23.5 mph 98% 0 in
17:46 45.1 °F 44.6 °F 29.7 in South 14.3 mph 14.8 mph 98% 0 in
17:51 45.1 °F 44.6 °F 29.7 in South 17.7 mph 17.7 mph 98% 0.01 in
17:52 45.1 °F 44.6 °F 29.7 in WSW 10.5 mph 17.7 mph 98% 0.01 in
17:57 45.3 °F 44.6 °F 29.7 in SSW 7.4 mph 17.7 mph 98% 0.01 in
18:02 45.3 °F 44.6 °F 29.7 in SSW 10.5 mph 14.8 mph 98% 0.01 in
18:03 45.3 °F 44.6 °F 29.7 in SSW 9.8 mph 14.8 mph 98% 0.01 in
18:12 45.5 °F 46.4 °F 29.7 in SW 7.8 mph 17 mph 98% 0.01 in
18:13 45.5 °F 46.4 °F 29.7 in SSW 6.5 mph 17 mph 98% 0.01 in
18:18 45.7 °F 46.4 °F 29.7 in SSW 10.1 mph 17.7 mph 98% 0.01 in
18:22 45.7 °F 46.4 °F 29.7 in SSW 10.7 mph 17.7 mph 98% 0.01 in
18:27 45.9 °F 46.4 °F 29.7 in SSW 8.1 mph 15.7 mph 98% 0.01 in
18:28 45.9 °F 46.4 °F 29.7 in SW 8.1 mph 15.7 mph 98% 0.01 in
18:33 46 °F 46.4 °F 29.7 in SSW 11 mph 15.7 mph 98% 0.01 in
18:34 46 °F 46.4 °F 29.7 in SW 7.6 mph 15.7 mph 98% 0.01 in
18:39 46 °F 46.4 °F 29.7 in SSW 6.3 mph 12.3 mph 98% 0.01 in
18:42 46.2 °F 46.4 °F 29.7 in SSW 12.1 mph 13.2 mph 98% 0.01 in
18:47 46.2 °F 46.4 °F 29.7 in SW 12.1 mph 13.2 mph 98% 0.01 in
18:49 46.2 °F 46.4 °F 29.7 in SW 6.5 mph 13.2 mph 98% 0.01 in
18:52 46.4 °F 46.4 °F 29.7 in SSW 7.8 mph 12.1 mph 98% 0 in
18:57 46.4 °F 46.4 °F 29.7 in SSW 6 mph 10.7 mph 98% 0 in
19:00 46.6 °F 46.4 °F 29.7 in SSW 7.4 mph 13 mph 98% 0 in
19:02 46.6 °F 46.4 °F 29.7 in SW 6 mph 13 mph 98% 0 in
19:06 46.6 °F 46.4 °F 29.7 in SSW 4.9 mph 13 mph 98% 0 in
19:11 46.8 °F 46.4 °F 29.6 in South 8.7 mph 10.7 mph 98% 0 in
19:17 46.9 °F 48.2 °F 29.6 in SW 8.5 mph 10.7 mph 98% 0 in
19:19 46.9 °F 48.2 °F 29.6 in SSW 8.7 mph 10.7 mph 98% 0 in
19:24 47.1 °F 48.2 °F 29.6 in SSW 4.3 mph 11 mph 98% 0 in
19:25 47.1 °F 48.2 °F 29.6 in SSW 5.8 mph 11 mph 98% 0 in
19:30 47.1 °F 48.2 °F 29.6 in SW 6 mph 11 mph 98% 0 in
19:32 47.1 °F 48.2 °F 29.6 in SSW 6 mph 8.5 mph 98% 0 in
19:37 47.3 °F 48.2 °F 29.6 in SSW 4.9 mph 7.8 mph 98% 0 in
19:43 47.3 °F 48.2 °F 29.6 in SSW 6.3 mph 7.6 mph 98% 0 in
19:50 47.5 °F 48.2 °F 29.6 in SSW 5.4 mph 9.6 mph 98% 0 in
19:54 47.7 °F 48.2 °F 29.6 in SSW 4.3 mph 9.6 mph 98% 0 in
19:59 47.7 °F 48.2 °F 29.6 in SSW 3.1 mph 7.6 mph 98% 0 in
20:06 47.8 °F 48.2 °F 29.6 in SSW 6.3 mph 8.1 mph 98% 0 in
20:12 48 °F 48.2 °F 29.6 in SW 5.4 mph 8.7 mph 98% 0 in
20:17 48.2 °F 48.2 °F 29.6 in SW 6.5 mph 8.7 mph 98% 0 in
20:20 48.4 °F 48.2 °F 29.6 in SW 6 mph 8.7 mph 98% 0 in
20:25 48.6 °F 48.2 °F 29.6 in WSW 5.6 mph 7.6 mph 98% 0 in
20:26 48.6 °F 48.2 °F 29.6 in SSW 4.9 mph 7.6 mph 98% 0 in
20:31 48.7 °F 48.2 °F 29.6 in SSW 5.6 mph 9.2 mph 98% 0 in
20:36 48.9 °F 48.2 °F 29.6 in SSW 8.5 mph 9.2 mph 98% 0 in
20:41 49.1 °F 50 °F 29.6 in South 7.8 mph 8.5 mph 98% 0 in
20:43 49.1 °F 50 °F 29.6 in SW 5.8 mph 8.5 mph 98% 0 in
20:46 49.3 °F 50 °F 29.6 in WSW 6.3 mph 8.5 mph 98% 0 in
20:48 49.5 °F 50 °F 29.6 in SW 5.6 mph 8.7 mph 98% 0 in
20:56 49.6 °F 50 °F 29.6 in WSW 4 mph 8.7 mph 98% 0 in
21:04 50 °F 50 °F 29.6 in SW 8.5 mph 8.9 mph 98% 0 in
21:09 50.4 °F 50 °F 29.6 in SSW 6.3 mph 10.5 mph 98% 0 in
21:10 50.4 °F 50 °F 29.6 in SW 5.8 mph 10.5 mph 98% 0 in
21:14 50.5 °F 50 °F 29.6 in WSW 10.5 mph 10.5 mph 98% 0 in
21:19 50.7 °F 50 °F 29.6 in SW 6 mph 14.5 mph 98% 0 in
21:20 50.7 °F 50 °F 29.6 in WSW 7.6 mph 14.5 mph 98% 0 in
21:25 50.7 °F 50 °F 29.6 in SW 7.6 mph 10.7 mph 98% 0 in
21:26 50.7 °F 50 °F 29.6 in WSW 5.8 mph 10.7 mph 98% 0 in
21:36 50.7 °F 50 °F 29.6 in SSW 7.8 mph 11 mph 98% 0 in
21:37 50.9 °F 51.8 °F 29.6 in WSW 11 mph 11 mph 98% 0 in
21:42 50.9 °F 51.8 °F 29.6 in WSW 8.1 mph 12.1 mph 98% 0 in
21:47 50.9 °F 51.8 °F 29.6 in WSW 11 mph 12.1 mph 98% 0 in
21:53 51.1 °F 51.8 °F 29.6 in SW 9.8 mph 13.4 mph 98% 0 in
21:54 51.1 °F 51.8 °F 29.6 in SSW 10.7 mph 13.4 mph 98% 0 in
21:59 51.3 °F 51.8 °F 29.6 in SW 7.8 mph 13.4 mph 98% 0 in
22:04 51.3 °F 51.8 °F 29.6 in WSW 13 mph 15.9 mph 98% 0 in
22:06 51.3 °F 51.8 °F 29.6 in WSW 8.5 mph 15.9 mph 98% 0 in
22:12 51.4 °F 51.8 °F 29.6 in SSW 11.2 mph 17.7 mph 98% 0 in
22:17 51.6 °F 51.8 °F 29.6 in WSW 12.5 mph 17.7 mph 98% 0 in
22:22 51.6 °F 51.8 °F 29.6 in WSW 12.3 mph 19.5 mph 98% 0 in
22:25 51.8 °F 51.8 °F 29.6 in WSW 8.7 mph 19.5 mph 98% 0 in
22:30 51.8 °F 51.8 °F 29.6 in SSW 12.8 mph 13.6 mph 98% 0 in
22:33 51.8 °F 51.8 °F 29.6 in WSW 8.7 mph 13.6 mph 98% 0 in
22:36 51.8 °F 51.8 °F 29.6 in SW 15.2 mph 15.2 mph 98% 0 in
22:42 52 °F 51.8 °F 29.5 in WSW 10.7 mph 15.2 mph 98% 0 in
22:47 52 °F 51.8 °F 29.5 in WSW 11.9 mph 14.5 mph 98% 0 in
22:48 52 °F 51.8 °F 29.5 in SSW 10.3 mph 14.5 mph 98% 0 in
22:54 52 °F 51.8 °F 29.5 in SSW 12.5 mph 14.5 mph 97% 0 in
22:55 52 °F 51.8 °F 29.5 in SSW 10.3 mph 14.5 mph 97% 0 in
22:59 52 °F 51.8 °F 29.5 in SSW 9.8 mph 14.8 mph 97% 0 in
23:04 52 °F 51.8 °F 29.5 in SSW 10.7 mph 16.8 mph 97% 0 in
23:06 52 °F 51.8 °F 29.5 in SW 12.8 mph 16.8 mph 97% 0 in
23:10 52 °F 51.8 °F 29.5 in SW 13 mph 16.8 mph 96% 0 in
23:12 52 °F 51.8 °F 29.5 in SW 8.1 mph 16.8 mph 96% 0 in
23:16 51.8 °F 51.8 °F 29.5 in WSW 10.5 mph 13.4 mph 96% 0 in
23:19 51.8 °F 51.8 °F 29.5 in SW 8.1 mph 15.7 mph 96% 0 in
23:24 51.8 °F 51.8 °F 29.5 in SW 10.3 mph 15.7 mph 96% 0 in
23:29 51.8 °F 50 °F 29.5 in SSW 7.2 mph 15.4 mph 95% 0 in
23:31 51.8 °F 50 °F 29.5 in SW 8.1 mph 15.4 mph 95% 0 in
23:38 52 °F 50 °F 29.5 in SSW 8.9 mph 14.8 mph 95% 0 in
23:49 51.6 °F 51.8 °F 29.5 in SSW 5.6 mph 12.3 mph 96% 0 in
23:50 51.6 °F 51.8 °F 29.5 in SSW 4.9 mph 12.3 mph 96% 0 in
23:55 51.6 °F 51.8 °F 29.5 in SSW 6.5 mph 13.2 mph 96% 0 in
23:58 51.6 °F 51.8 °F 29.4 in South 7.6 mph 13.2 mph 96% 0 in
Données Historique de Météo Turbie

Mise a jour : 20/05/2018 16:14:12
Généré par Cumulus 1.9.4 (1099)